Dauntless Aviation
Airports Europe Germany
EDAJ

Gera-Leumnitz Airfield

Gera, GERMANY

Airport Info
Suggest Updated Information for this Airport

Location

Latitude / Longitude: 50°52'54"N / 12°8'8"E
  50°52.902'N / 12°8.148'E
  50.8817 / 12.1358
Satellite photo at:
Airport distance calculator
From:
Weather Reports

METAR

EDAC
15.1nm NE
EDAC 241350Z 25002KT 9999 FEW007 OVC020 06/04 Q1033
EDDP
33.3nm N
EDDP 241350Z 26004KT 8000 FEW004 SCT008 OVC020 06/05 Q1033 NOSIG
EDQM
36.6nm S
EDQM 241350Z 16004KT 110V200 9999 OVC006 01/00 Q1032

TAF

EDAC
15.1nm NE
TAF EDAC 241100Z 2412/2421 VRB02KT 1000 BR OVC005 BECMG 2412/2414 6000 SCT005 TEMPO 2419/2421 4500 BR
EDDP
33.3nm N
TAF EDDP 241100Z 2412/2512 VRB03KT 8000 SCT005 OVC020 TEMPO 2420/2501 4500 BR TEMPO 2501/2509 2500 BR BKN004
EDQM
36.6nm S
TAF AMD EDQM 241305Z 2413/2421 05003KT 9000 OVC007 TEMPO 2413/2417 BKN015 BECMG 2420/2421 0500 FZFG
Safelog

 

Dauntless Aviation

© 2007-2022 Dauntless Aviation, all rights reserved
Information provided via PilotNav comes from a variety of official and unofficial data sources. As errors are possible, do not use PilotNav for primary flight planning purposes. Verify any information that you receive via PilotNav with current and canonical charts and other official documents. The material in this database is subject to database copyrights held by Dauntless Aviation and may not be copied without the express permission of Dauntless Aviation - licenses for use of part of all of this data are available for purchase; enquire via the Dauntless Aviation helpdesk. A number of mechanisms and markers exist in the database to protect against and identify infringement / copyright. Automated queries against this website are strictly prohibited, and all activity is logged and analyzed.